Regional Weather Roundup
Issued by NWS Raleigh/Durham, NC

Current Version | Previous Version | Graphics & Text | Print | Product List | Glossary On
Versions: 1 2 3 4 5 6 7 8 9 10 11 12 13 14 15 16 17 18 19 20 21 22 23 24 25 26 27
000
ASUS42 KRAH 251910
RWRRAH
NORTH CAROLINA WEATHER ROUNDUP
NATIONAL WEATHER SERVICE RALEIGH NC
300 PM EDT SUN SEP 25 2016

NOTE: "FAIR" INDICATES FEW OR NO CLOUDS BELOW 12,000 FEET WITH NO
SIGNIFICANT WEATHER AND/OR OBSTRUCTIONS TO VISIBILITY.

NCZ001-053-055-056-065-067-252000-
WESTERN NORTH CAROLINA

CITY           SKY/WX    TMP DP  RH WIND       PRES   REMARKS
ASHEVILLE      MOSUNNY   84  60  44 SE8       30.14F
JEFFERSON      MOSUNNY   72  63  75 S5        30.20F
HICKORY        PTSUNNY   80  66  62 N5        30.12F
RUTHERFORDTON  MOSUNNY   84  65  52 CALM      30.11F
MOUNT AIRY     CLOUDY    75  69  80 E3        30.17F
BOONE          SUNNY     76  63  62 S5        30.21F
$$

NCZ021-022-025-041-071-084-088-252000-
CENTRAL NORTH CAROLINA

CITY           SKY/WX    TMP DP  RH WIND       PRES   REMARKS
CHARLOTTE      MOSUNNY   89  66  46 NE3       30.09F
GREENSBORO     CLOUDY    73  69  87 NE9       30.13F
WINSTON-SALEM  CLOUDY    73  66  78 NE8       30.15F
RALEIGH-DURHAM CLOUDY    72  66  81 VRB5      30.14F
FORT BRAGG     MOSUNNY   79  70  73 E8        30.09F
FAYETTEVILLE   PTSUNNY   82  70  66 N9        30.08F
BURLINGTON     CLOUDY    71  69  93 NE6       30.13F
LAURINBURG     SUNNY     85  70  60 SW3       30.08F
$$

NCZ011-015-027-028-043-044-047-080-103-252000-
NORTHEASTERN NORTH CAROLINA

CITY           SKY/WX    TMP DP  RH WIND       PRES   REMARKS
ROCKY MT-WILSO CLOUDY    75  66  73 NE9       30.14S
GREENVILLE     CLOUDY    73  64  73 E3        30.14S
WASHINGTON     PTSUNNY   74  63  68 NE6       30.14R
ELIZABETH CITY MOSUNNY   75  59  57 NE10      30.14F
MANTEO         MOSUNNY   73  56  57 NE14      30.15S
CAPE HATTERAS  MOSUNNY   76  60  57 NE12G22   30.11F
$$

NCZ078-087-090-091-093-098-101-252000-
SOUTHEASTERN NORTH CAROLINA

CITY           SKY/WX    TMP DP  RH WIND       PRES   REMARKS
LUMBERTON      PTSUNNY   85  70  60 E6        30.06F
GOLDSBORO      PTSUNNY   75  71  88 NE8       30.10F
KINSTON        CLOUDY    75  66  73 E5        30.13F
KENANSVILLE    CLOUDY    77  70  78 E3        30.11F
NEW BERN       CLOUDY    76  64  66 NE9       30.13S
CHERRY POINT   CLOUDY    76  64  66 E9        30.12F
BEAUFORT       CLOUDY    78  62  57 NE10      30.10F
JACKSONVILLE   CLOUDY    78  69  73 NE8       30.09F
WILMINGTON     MOSUNNY   81  71  71 E10       30.07F
$$





USA.gov is the U.S. government's official web portal to all federal, state and local government web resources and services.